• In Czech Republic
  • List of Countries
  • For 7 days
  • Water Temperature
  • Satellite Maps
  • Weather Map
  • Weather Widgets
  • user-avatar
    Login

    Hourly Weather Mingachevir

    Today, 23 June, Friday

    Time Temperature Precipitation Wind Pressure Humidity
    00:00 +20°C° 0 mm 1 mps 751 mmHg 80%
    01:00 +20°C° 0 mm 1 mps 751 mmHg 79%
    02:00 +20°C° 0 mm 1 mps 751 mmHg 78%
    03:00 +19°C° 0 mm 2 mps 751 mmHg 76%
    04:00 +20°C° 0 mm 2 mps 751 mmHg 72%
    05:00 +21°C° 0 mm 2 mps 751 mmHg 69%
    06:00 +23°C° 0 mm 2 mps 752 mmHg 65%
    07:00 +25°C° 0 mm 2 mps 752 mmHg 59%
    08:00 +26°C° 0 mm 3 mps 752 mmHg 53%
    09:00 +28°C° 0 mm 2 mps 752 mmHg 46%
    10:00 +29°C° 0 mm 2 mps 751 mmHg 44%
    11:00 +30°C° 0 mm 1 mps 751 mmHg 42%
    12:00 +31°C° 0 mm 1 mps 751 mmHg 40%
    13:00 +31°C° 0.1 mm 1 mps 751 mmHg 39%
    14:00 +32°C° 0.1 mm 1 mps 750 mmHg 38%
    15:00 +32°C° 0.1 mm 1 mps 750 mmHg 37%
    16:00 +32°C° 0.1 mm 1 mps 750 mmHg 38%
    17:00 +31°C° 0.1 mm 1 mps 750 mmHg 40%
    18:00 +31°C° 0.1 mm 1 mps 750 mmHg 41%
    19:00 +29°C° 0.3 mm 2 mps 751 mmHg 47%
    20:00 +27°C° 0.3 mm 2 mps 752 mmHg 53%
    21:00 +24°C° 0.3 mm 3 mps 752 mmHg 59%
    22:00 +24°C° 0.1 mm 2 mps 752 mmHg 62%
    23:00 +23°C° 0.1 mm 2 mps 752 mmHg 65%

    Tomorrow, 24 June, Saturday

    Time Temperature Precipitation Wind Pressure Humidity
    00:00 +22°C° 0.1 mm 1 mps 752 mmHg 68%
    01:00 +22°C° 0 mm 1 mps 752 mmHg 69%
    02:00 +22°C° 0 mm 1 mps 752 mmHg 70%
    03:00 +21°C° 0 mm 1 mps 752 mmHg 71%
    04:00 +22°C° 0 mm 1 mps 753 mmHg 68%
    05:00 +23°C° 0 mm 1 mps 753 mmHg 65%
    06:00 +24°C° 0 mm 2 mps 753 mmHg 62%
    07:00 +25°C° 0 mm 2 mps 752 mmHg 57%
    08:00 +26°C° 0 mm 2 mps 752 mmHg 53%
    09:00 +28°C° 0 mm 2 mps 752 mmHg 48%
    10:00 +29°C° 0 mm 2 mps 751 mmHg 46%
    11:00 +30°C° 0 mm 2 mps 751 mmHg 43%
    12:00 +31°C° 0 mm 2 mps 750 mmHg 41%
    13:00 +31°C° 0 mm 2 mps 750 mmHg 40%
    14:00 +32°C° 0 mm 2 mps 749 mmHg 38%
    15:00 +33°C° 0 mm 1 mps 748 mmHg 37%
    16:00 +32°C° 0 mm 1 mps 748 mmHg 38%
    17:00 +32°C° 0 mm 1 mps 748 mmHg 39%
    18:00 +32°C° 0 mm 1 mps 748 mmHg 41%
    19:00 +30°C° 0 mm 1 mps 749 mmHg 45%
    20:00 +27°C° 0 mm 1 mps 749 mmHg 50%
    21:00 +25°C° 0 mm 1 mps 749 mmHg 55%
    22:00 +25°C° 0 mm 1 mps 750 mmHg 56%
    23:00 +24°C° 0 mm 1 mps 750 mmHg 57%

    Day after tomorrow, 25 June, Sunday

    Time Temperature Precipitation Wind Pressure Humidity
    00:00 +24°C° 0 mm 1 mps 750 mmHg 58%
    01:00 +23°C° 0 mm 1 mps 750 mmHg 60%
    02:00 +23°C° 0 mm 1 mps 750 mmHg 63%
    03:00 +22°C° 0 mm 1 mps 750 mmHg 65%
    04:00 +23°C° 0 mm 1 mps 750 mmHg 61%
    05:00 +25°C° 0 mm 1 mps 750 mmHg 57%
    06:00 +26°C° 0 mm 2 mps 750 mmHg 53%
    07:00 +28°C° 0 mm 3 mps 750 mmHg 46%
    08:00 +29°C° 0 mm 3 mps 750 mmHg 40%
    09:00 +32°C° 0 mm 4 mps 750 mmHg 33%
    10:00 +33°C° 0 mm 4 mps 750 mmHg 31%
    11:00 +35°C° 0 mm 4 mps 750 mmHg 28%
    12:00 +36°C° 0 mm 4 mps 749 mmHg 26%
    13:00 +36°C° 0.1 mm 3 mps 749 mmHg 25%
    14:00 +37°C° 0.1 mm 3 mps 749 mmHg 24%
    15:00 +37°C° 0.1 mm 2 mps 749 mmHg 24%
    16:00 +36°C° 0 mm 2 mps 749 mmHg 26%
    17:00 +36°C° 0 mm 2 mps 749 mmHg 28%
    18:00 +34°C° 0 mm 1 mps 750 mmHg 31%
    19:00 +32°C° 0 mm 2 mps 750 mmHg 37%
    20:00 +29°C° 0 mm 3 mps 751 mmHg 44%
    21:00 +27°C° 0 mm 4 mps 752 mmHg 50%
    22:00 +26°C° 0 mm 3 mps 752 mmHg 54%
    23:00 +25°C° 0 mm 3 mps 752 mmHg 58%

    26 June, Monday

    Time Temperature Precipitation Wind Pressure Humidity
    00:00 +24°C° 0 mm 2 mps 753 mmHg 62%
    01:00 +24°C° 0 mm 2 mps 753 mmHg 64%
    02:00 +23°C° 0 mm 2 mps 753 mmHg 65%
    03:00 +23°C° 0 mm 1 mps 753 mmHg 67%
    04:00 +24°C° 0 mm 1 mps 753 mmHg 64%
    05:00 +25°C° 0 mm 1 mps 753 mmHg 61%
    06:00 +26°C° 0 mm 2 mps 754 mmHg 58%
    07:00 +27°C° 0 mm 2 mps 754 mmHg 53%
    08:00 +29°C° 0 mm 3 mps 754 mmHg 48%
    09:00 +30°C° 0 mm 3 mps 754 mmHg 43%
    10:00 +33°C° 0 mm 3 mps 753 mmHg 40%
    11:00 +34°C° 0 mm 4 mps 753 mmHg 37%
    12:00 +35°C° 0 mm 4 mps 752 mmHg 34%
    13:00 +35°C° 0 mm 4 mps 752 mmHg 33%
    14:00 +36°C° 0 mm 4 mps 752 mmHg 32%
    15:00 +36°C° 0 mm 4 mps 751 mmHg 31%
    16:00 +36°C° 0 mm 4 mps 751 mmHg 32%
    17:00 +35°C° 0 mm 3 mps 751 mmHg 33%
    18:00 +35°C° 0 mm 3 mps 751 mmHg 35%
    19:00 +33°C° 0 mm 3 mps 752 mmHg 39%
    20:00 +30°C° 0 mm 3 mps 752 mmHg 43%
    21:00 +28°C° 0 mm 3 mps 753 mmHg 48%
    22:00 +27°C° 0 mm 3 mps 753 mmHg 51%
    23:00 +26°C° 0 mm 2 mps 753 mmHg 54%

    27 June, Tuesday

    Time Temperature Precipitation Wind Pressure Humidity
    00:00 +25°C° 0 mm 2 mps 753 mmHg 57%
    01:00 +24°C° 0 mm 1 mps 752 mmHg 60%
    02:00 +24°C° 0 mm 1 mps 752 mmHg 63%
    03:00 +23°C° 0 mm 1 mps 752 mmHg 65%
    04:00 +24°C° 0 mm 1 mps 752 mmHg 62%
    05:00 +25°C° 0 mm 1 mps 752 mmHg 59%
    06:00 +27°C° 0 mm 1 mps 752 mmHg 56%
    07:00 +28°C° 0 mm 1 mps 752 mmHg 50%
    08:00 +30°C° 0 mm 1 mps 752 mmHg 45%
    09:00 +31°C° 0 mm 2 mps 752 mmHg 40%
    10:00 +33°C° 0 mm 1 mps 751 mmHg 37%
    11:00 +34°C° 0 mm 1 mps 751 mmHg 34%
    12:00 +36°C° 0 mm 1 mps 751 mmHg 31%
    13:00 +36°C° 0 mm 1 mps 750 mmHg 30%
    14:00 +38°C° 0 mm 2 mps 750 mmHg 28%
    15:00 +39°C° 0 mm 2 mps 750 mmHg 27%
    16:00 +38°C° 0 mm 2 mps 750 mmHg 28%
    17:00 +38°C° 0 mm 2 mps 750 mmHg 29%
    18:00 +38°C° 0 mm 2 mps 751 mmHg 30%
    19:00 +35°C° 0 mm 3 mps 751 mmHg 34%
    20:00 +33°C° 0 mm 3 mps 752 mmHg 37%
    21:00 +30°C° 0 mm 4 mps 752 mmHg 41%
    22:00 +29°C° 0 mm 3 mps 752 mmHg 43%
    23:00 +28°C° 0 mm 3 mps 752 mmHg 45%

    28 June, Wednesday

    Time Temperature Precipitation Wind Pressure Humidity
    00:00 +27°C° 0 mm 2 mps 752 mmHg 48%
    01:00 +26°C° 0 mm 2 mps 752 mmHg 49%
    02:00 +26°C° 0 mm 2 mps 752 mmHg 51%
    03:00 +25°C° 0 mm 1 mps 752 mmHg 52%
    04:00 +26°C° 0 mm 1 mps 752 mmHg 51%
    05:00 +27°C° 0 mm 1 mps 752 mmHg 49%
    06:00 +28°C° 0 mm 1 mps 753 mmHg 47%
    07:00 +30°C° 0 mm 1 mps 752 mmHg 42%
    08:00 +32°C° 0 mm 2 mps 752 mmHg 36%
    09:00 +34°C° 0 mm 3 mps 752 mmHg 31%
    10:00 +36°C° 0 mm 3 mps 752 mmHg 29%
    11:00 +37°C° 0 mm 3 mps 751 mmHg 27%
    12:00 +38°C° 0 mm 3 mps 751 mmHg 26%
    13:00 +40°C° 0 mm 4 mps 750 mmHg 25%
    14:00 +40°C° 0 mm 4 mps 750 mmHg 24%
    15:00 +41°C° 0 mm 5 mps 749 mmHg 23%
    16:00 +40°C° 0 mm 5 mps 749 mmHg 24%
    17:00 +39°C° 0 mm 5 mps 749 mmHg 25%
    18:00 +37°C° 0 mm 5 mps 749 mmHg 27%
    19:00 +35°C° 0 mm 5 mps 750 mmHg 30%
    20:00 +33°C° 0 mm 4 mps 750 mmHg 34%
    21:00 +29°C° 0 mm 4 mps 750 mmHg 38%
    22:00 +28°C° 0 mm 3 mps 750 mmHg 40%
    23:00 +27°C° 0 mm 3 mps 750 mmHg 42%
    Show more